Time,TemperatureF,DewpointF,PressureIn,WindDirection,WindDirectionDegrees,WindSpeedMPH,WindSpeedGustMPH,Humidity,HourlyPrecipIn,Conditions,Clouds,dailyrainin,SoftwareType,DateUTC
2013-04-29 00:00:00,53.8,52.1,29.82,NNW,348,0.0,0.0,94,0.00,,,0.00,Wunderground v.1.15,2013-04-29 04:00:00,
2013-04-29 00:05:00,53.8,52.1,29.82,NNW,348,0.0,0.0,94,0.00,,,0.00,Wunderground v.1.15,2013-04-29 04:05:00,
2013-04-29 00:10:00,53.8,52.1,29.82,North,350,0.0,0.0,94,0.00,,,0.00,Wunderground v.1.15,2013-04-29 04:10:00,
2013-04-29 00:20:00,53.8,52.1,29.82,North,350,0.0,0.0,94,0.00,,,0.00,Wunderground v.1.15,2013-04-29 04:20:00,
2013-04-29 00:30:00,53.8,52.1,29.82,North,350,0.0,0.0,94,0.00,,,0.00,Wunderground v.1.15,2013-04-29 04:30:00,
2013-04-29 00:35:00,53.8,52.1,29.82,North,350,0.0,0.0,94,0.00,,,0.00,Wunderground v.1.15,2013-04-29 04:35:00,
2013-04-29 00:40:00,53.7,52.0,29.82,North,350,0.0,0.0,94,0.00,,,0.00,Wunderground v.1.15,2013-04-29 04:40:00,
2013-04-29 00:50:00,53.9,52.2,29.82,North,355,1.0,2.0,94,0.00,,,0.00,Wunderground v.1.15,2013-04-29 04:50:00,
2013-04-29 01:00:00,54.0,52.3,29.81,SE,134,1.0,1.0,94,0.00,,,0.00,Wunderground v.1.15,2013-04-29 05:00:00,
2013-04-29 01:10:00,54.2,52.5,29.81,SE,140,1.0,1.0,94,0.00,,,0.00,Wunderground v.1.15,2013-04-29 05:10:00,
2013-04-29 01:20:00,54.0,52.3,29.82,SE,140,0.0,0.0,94,0.00,,,0.00,Wunderground v.1.15,2013-04-29 05:20:00,
2013-04-29 01:25:00,53.9,52.2,29.82,SE,140,0.0,0.0,94,0.00,,,0.00,Wunderground v.1.15,2013-04-29 05:25:00,
2013-04-29 01:35:00,53.9,52.2,29.82,SE,140,0.0,1.0,94,0.00,,,0.00,Wunderground v.1.15,2013-04-29 05:35:00,
2013-04-29 01:40:00,53.8,52.1,29.82,SE,140,1.0,1.0,94,0.00,,,0.00,Wunderground v.1.15,2013-04-29 05:40:00,
2013-04-29 01:50:00,53.9,52.2,29.82,SE,140,1.0,1.0,94,0.00,,,0.00,Wunderground v.1.15,2013-04-29 05:50:00,
2013-04-29 02:00:00,53.8,52.1,29.82,SE,140,0.0,0.0,94,0.00,,,0.00,Wunderground v.1.15,2013-04-29 06:00:00,
2013-04-29 02:10:00,54.0,52.3,29.82,SE,140,0.0,0.0,94,0.00,,,0.00,Wunderground v.1.15,2013-04-29 06:10:00,
2013-04-29 02:20:00,54.2,52.5,29.82,SE,140,0.0,1.0,94,0.00,,,0.00,Wunderground v.1.15,2013-04-29 06:20:00,
2013-04-29 02:30:00,54.9,53.5,29.82,SSE,150,1.0,1.0,95,0.00,,,0.00,Wunderground v.1.15,2013-04-29 06:30:00,
2013-04-29 02:40:00,54.8,53.1,29.82,SSW,210,1.0,1.0,94,0.00,,,0.00,Wunderground v.1.15,2013-04-29 06:40:00,
2013-04-29 02:50:00,54.6,52.9,29.82,SSW,210,0.0,0.0,94,0.00,,,0.00,Wunderground v.1.15,2013-04-29 06:50:00,
2013-04-29 03:00:00,55.0,53.3,29.83,SSW,212,1.0,2.0,94,0.00,,,0.00,Wunderground v.1.15,2013-04-29 07:00:00,
2013-04-29 03:10:00,55.2,53.5,29.82,WSW,248,2.0,3.0,94,0.00,,,0.00,Wunderground v.1.15,2013-04-29 07:10:00,
2013-04-29 03:20:00,55.3,53.6,29.82,WNW,282,3.0,3.0,94,0.00,,,0.00,Wunderground v.1.15,2013-04-29 07:20:00,
2013-04-29 03:25:00,55.3,53.6,29.83,West,274,4.0,4.0,94,0.00,,,0.00,Wunderground v.1.15,2013-04-29 07:25:00,
2013-04-29 03:35:00,55.1,53.4,29.83,WNW,284,4.0,4.0,94,0.00,,,0.00,Wunderground v.1.15,2013-04-29 07:35:00,
2013-04-29 03:45:00,55.1,53.4,29.83,WNW,284,4.0,4.0,94,0.00,,,0.00,Wunderground v.1.15,2013-04-29 07:45:00,
2013-04-29 03:50:00,55.2,53.5,29.83,West,268,4.0,5.0,94,0.00,,,0.00,Wunderground v.1.15,2013-04-29 07:50:00,
2013-04-29 04:00:00,55.1,53.4,29.83,WNW,289,6.0,7.0,94,0.00,,,0.00,Wunderground v.1.15,2013-04-29 08:00:00,
2013-04-29 04:10:00,54.8,53.1,29.84,WNW,282,6.0,6.0,94,0.00,,,0.00,Wunderground v.1.15,2013-04-29 08:10:00,
2013-04-29 04:15:00,54.6,52.9,29.84,WNW,292,4.0,6.0,94,0.00,,,0.00,Wunderground v.1.15,2013-04-29 08:15:00,
2013-04-29 04:25:00,54.5,52.8,29.84,West,275,4.0,4.0,94,0.00,,,0.00,Wunderground v.1.15,2013-04-29 08:25:00,
2013-04-29 04:30:00,54.5,52.8,29.84,WNW,283,3.0,4.0,94,0.00,,,0.00,Wunderground v.1.15,2013-04-29 08:30:00,
2013-04-29 04:35:00,54.4,52.7,29.84,WNW,288,3.0,4.0,94,0.00,,,0.00,Wunderground v.1.15,2013-04-29 08:35:00,
2013-04-29 04:45:00,54.4,52.7,29.84,NW,308,4.0,7.0,94,0.00,,,0.00,Wunderground v.1.15,2013-04-29 08:45:00,
2013-04-29 04:50:00,54.3,52.6,29.84,NW,306,5.0,5.0,94,0.00,,,0.00,Wunderground v.1.15,2013-04-29 08:50:00,
2013-04-29 05:00:00,54.2,52.5,29.84,NW,315,5.0,5.0,94,0.00,,,0.01,Wunderground v.1.15,2013-04-29 09:00:00,
2013-04-29 05:10:00,54.1,52.4,29.84,NW,318,6.0,6.0,94,0.00,,,0.01,Wunderground v.1.15,2013-04-29 09:10:00,
2013-04-29 05:20:00,54.0,52.3,29.85,WNW,298,6.0,6.0,94,0.00,,,0.01,Wunderground v.1.15,2013-04-29 09:20:00,
2013-04-29 05:30:00,54.1,52.4,29.85,SW,223,4.0,4.0,94,0.00,,,0.01,Wunderground v.1.15,2013-04-29 09:30:00,
2013-04-29 05:40:00,54.2,52.8,29.86,WSW,253,3.0,5.0,95,0.00,,,0.01,Wunderground v.1.15,2013-04-29 09:40:00,
2013-04-29 05:45:00,54.3,52.9,29.86,WSW,245,3.0,5.0,95,0.00,,,0.01,Wunderground v.1.15,2013-04-29 09:45:00,
2013-04-29 05:55:00,54.3,52.9,29.86,WSW,257,4.0,4.0,95,0.00,,,0.01,Wunderground v.1.15,2013-04-29 09:55:00,
2013-04-29 06:00:00,54.2,52.5,29.86,WSW,251,3.0,3.0,94,0.00,,,0.01,Wunderground v.1.15,2013-04-29 10:00:00,
2013-04-29 06:10:00,54.0,52.3,29.86,WSW,252,1.0,2.0,94,0.00,,,0.01,Wunderground v.1.15,2013-04-29 10:10:00,
2013-04-29 06:15:00,53.9,52.2,29.86,WSW,252,0.0,2.0,94,0.00,,,0.01,Wunderground v.1.15,2013-04-29 10:15:00,
2013-04-29 06:25:00,53.7,52.0,29.87,SW,231,1.0,2.0,94,0.00,,,0.01,Wunderground v.1.15,2013-04-29 10:25:00,
2013-04-29 06:35:00,53.7,52.0,29.87,SW,221,2.0,3.0,94,0.00,,,0.01,Wunderground v.1.15,2013-04-29 10:35:00,
2013-04-29 06:45:00,53.8,52.1,29.87,SW,223,2.0,3.0,94,0.00,,,0.01,Wunderground v.1.15,2013-04-29 10:45:00,
2013-04-29 06:50:00,53.8,52.1,29.88,SW,222,2.0,2.0,94,0.00,,,0.01,Wunderground v.1.15,2013-04-29 10:50:00,
2013-04-29 07:00:00,53.9,52.2,29.88,SW,227,2.0,2.0,94,0.00,,,0.01,Wunderground v.1.15,2013-04-29 11:00:00,
2013-04-29 07:10:00,53.9,52.2,29.89,WSW,250,3.0,3.0,94,0.00,,,0.01,Wunderground v.1.15,2013-04-29 11:10:00,
2013-04-29 07:15:00,53.9,52.2,29.89,WSW,247,4.0,4.0,94,0.00,,,0.01,Wunderground v.1.15,2013-04-29 11:15:00,
2013-04-29 07:25:00,54.1,52.4,29.89,WSW,258,3.0,3.0,94,0.00,,,0.01,Wunderground v.1.15,2013-04-29 11:25:00,
2013-04-29 07:35:00,54.3,52.9,29.89,West,260,3.0,4.0,95,0.00,,,0.01,Wunderground v.1.15,2013-04-29 11:35:00,
2013-04-29 07:45:00,54.4,53.0,29.89,WSW,246,3.0,4.0,95,0.00,,,0.01,Wunderground v.1.15,2013-04-29 11:45:00,
2013-04-29 07:55:00,54.6,52.9,29.90,WSW,244,3.0,5.0,94,0.00,,,0.01,Wunderground v.1.15,2013-04-29 11:55:00,
2013-04-29 08:00:00,54.6,52.9,29.90,WSW,245,3.0,4.0,94,0.00,,,0.01,Wunderground v.1.15,2013-04-29 12:00:00,
2013-04-29 08:10:00,54.7,53.0,29.90,WSW,237,4.0,5.0,94,0.00,,,0.01,Wunderground v.1.15,2013-04-29 12:10:00,
2013-04-29 08:15:00,54.8,53.1,29.90,WSW,245,4.0,5.0,94,0.00,,,0.01,Wunderground v.1.15,2013-04-29 12:15:00,
2013-04-29 08:25:00,54.7,53.0,29.91,West,266,4.0,5.0,94,0.00,,,0.01,Wunderground v.1.15,2013-04-29 12:25:00,
2013-04-29 08:30:00,54.7,53.0,29.91,WSW,254,4.0,6.0,94,0.00,,,0.01,Wunderground v.1.15,2013-04-29 12:30:00,
2013-04-29 08:40:00,54.7,53.0,29.91,WSW,257,5.0,5.0,94,0.00,,,0.01,Wunderground v.1.15,2013-04-29 12:40:00,
2013-04-29 08:50:00,54.7,53.0,29.91,WSW,257,4.0,5.0,94,0.00,,,0.01,Wunderground v.1.15,2013-04-29 12:50:00,
2013-04-29 09:00:00,54.8,53.1,29.91,West,271,3.0,3.0,94,0.00,,,0.01,Wunderground v.1.15,2013-04-29 13:00:00,
2013-04-29 09:10:00,54.9,52.9,29.92,WSW,251,4.0,4.0,93,0.00,,,0.01,Wunderground v.1.15,2013-04-29 13:10:00,
2013-04-29 09:20:00,55.1,53.1,29.92,WSW,257,4.0,4.0,93,0.00,,,0.01,Wunderground v.1.15,2013-04-29 13:20:00,
2013-04-29 09:30:00,55.1,53.1,29.92,WSW,257,4.0,4.0,93,0.00,,,0.01,Wunderground v.1.15,2013-04-29 13:30:00,
2013-04-29 09:40:00,55.3,53.0,29.92,West,260,4.0,4.0,92,0.00,,,0.01,Wunderground v.1.15,2013-04-29 13:40:00,
2013-04-29 09:45:00,55.4,53.1,29.92,WSW,255,4.0,5.0,92,0.00,,,0.01,Wunderground v.1.15,2013-04-29 13:45:00,
2013-04-29 09:55:00,55.6,53.0,29.92,West,271,4.0,5.0,91,0.00,,,0.01,Wunderground v.1.15,2013-04-29 13:55:00,
2013-04-29 10:00:00,55.9,53.6,29.92,West,263,4.0,4.0,92,0.00,,,0.01,Wunderground v.1.15,2013-04-29 14:00:00,
2013-04-29 10:10:00,56.0,53.4,29.92,West,271,4.0,4.0,91,0.00,,,0.01,Wunderground v.1.15,2013-04-29 14:10:00,
2013-04-29 10:15:00,56.3,53.7,29.92,WSW,252,4.0,4.0,91,0.00,,,0.01,Wunderground v.1.15,2013-04-29 14:15:00,
2013-04-29 10:25:00,56.5,53.6,29.92,West,270,3.0,4.0,90,0.00,,,0.01,Wunderground v.1.15,2013-04-29 14:25:00,
2013-04-29 10:30:00,56.7,53.8,29.92,West,268,4.0,4.0,90,0.00,,,0.01,Wunderground v.1.15,2013-04-29 14:30:00,
2013-04-29 10:40:00,57.0,53.8,29.92,WNW,293,4.0,4.0,89,0.00,,,0.01,Wunderground v.1.15,2013-04-29 14:40:00,
2013-04-29 10:45:00,57.2,54.0,29.92,West,265,3.0,4.0,89,0.00,,,0.01,Wunderground v.1.15,2013-04-29 14:45:00,
2013-04-29 10:55:00,57.7,54.2,29.92,WSW,256,4.0,4.0,88,0.00,,,0.01,Wunderground v.1.15,2013-04-29 14:55:00,
2013-04-29 11:00:00,58.2,54.7,29.92,West,263,3.0,4.0,88,0.00,,,0.01,Wunderground v.1.15,2013-04-29 15:00:00,
2013-04-29 11:10:00,59.0,54.8,29.92,West,263,4.0,4.0,86,0.00,,,0.01,Wunderground v.1.15,2013-04-29 15:10:00,
2013-04-29 11:20:00,60.0,55.2,29.92,West,281,5.0,6.0,84,0.00,,,0.01,Wunderground v.1.15,2013-04-29 15:20:00,
2013-04-29 11:30:00,60.5,55.6,29.92,West,278,3.0,3.0,84,0.00,,,0.01,Wunderground v.1.15,2013-04-29 15:30:00,
2013-04-29 11:40:00,60.8,55.3,29.93,SW,234,3.0,5.0,82,0.00,,,0.01,Wunderground v.1.15,2013-04-29 15:40:00,
2013-04-29 11:45:00,60.9,55.4,29.93,WSW,247,3.0,6.0,82,0.00,,,0.01,Wunderground v.1.15,2013-04-29 15:45:00,
2013-04-29 11:55:00,61.2,55.3,29.92,SW,236,2.0,4.0,81,0.00,,,0.01,Wunderground v.1.15,2013-04-29 15:55:00,
2013-04-29 12:00:00,61.8,55.2,29.92,WSW,253,3.0,5.0,79,0.00,,,0.01,Wunderground v.1.15,2013-04-29 16:00:00,
2013-04-29 12:10:00,61.6,54.0,29.92,West,259,3.0,3.0,76,0.00,,,0.01,Wunderground v.1.15,2013-04-29 16:10:00,
2013-04-29 12:20:00,61.7,54.8,29.92,West,265,2.0,2.0,78,0.00,,,0.01,Wunderground v.1.15,2013-04-29 16:20:00,
2013-04-29 12:25:00,62.4,55.8,29.92,WSW,246,3.0,3.0,79,0.00,,,0.01,Wunderground v.1.15,2013-04-29 16:25:00,
2013-04-29 12:35:00,62.3,53.9,29.92,WSW,257,2.0,3.0,74,0.00,,,0.01,Wunderground v.1.15,2013-04-29 16:35:00,
2013-04-29 12:45:00,62.5,54.5,29.92,West,261,3.0,3.0,75,0.00,,,0.01,Wunderground v.1.15,2013-04-29 16:45:00,
2013-04-29 12:55:00,63.5,54.7,29.91,WSW,246,3.0,4.0,73,0.00,,,0.01,Wunderground v.1.15,2013-04-29 16:55:00,
2013-04-29 13:00:00,63.5,54.3,29.91,SSW,194,3.0,3.0,72,0.00,,,0.01,Wunderground v.1.15,2013-04-29 17:00:00,
2013-04-29 13:05:00,63.4,54.2,29.91,SSW,206,3.0,3.0,72,0.00,,,0.01,Wunderground v.1.15,2013-04-29 17:05:00,
2013-04-29 13:15:00,63.3,54.1,29.91,West,267,2.0,3.0,72,0.00,,,0.01,Wunderground v.1.15,2013-04-29 17:15:00,
2013-04-29 13:24:00,63.4,54.6,29.91,WSW,252,3.0,6.0,73,0.00,,,0.01,Wunderground v.1.15,2013-04-29 17:24:00,
2013-04-29 13:34:00,63.9,55.1,29.91,SW,221,5.0,5.0,73,0.00,,,0.01,Wunderground v.1.15,2013-04-29 17:34:00,
2013-04-29 13:39:00,64.0,55.2,29.91,SSW,207,4.0,4.0,73,0.00,,,0.01,Wunderground v.1.15,2013-04-29 17:39:00,
2013-04-29 13:49:00,64.0,54.8,29.91,SSE,149,2.0,2.0,72,0.00,,,0.01,Wunderground v.1.15,2013-04-29 17:49:00,
2013-04-29 13:59:00,64.4,54.0,29.90,South,183,3.0,3.0,69,0.00,,,0.01,Wunderground v.1.15,2013-04-29 17:59:00,
2013-04-29 14:09:00,64.7,54.7,29.91,East,97,3.0,3.0,70,0.00,,,0.01,Wunderground v.1.15,2013-04-29 18:09:00,
2013-04-29 14:19:00,64.3,55.8,29.90,SSE,147,2.0,5.0,74,0.00,,,0.01,Wunderground v.1.15,2013-04-29 18:19:00,
2013-04-29 14:29:00,63.0,54.9,29.90,SE,126,4.0,7.0,75,0.00,,,0.01,Wunderground v.1.15,2013-04-29 18:29:00,
2013-04-29 14:39:00,62.6,54.6,29.90,ESE,118,5.0,5.0,75,0.00,,,0.01,Wunderground v.1.15,2013-04-29 18:39:00,
2013-04-29 14:49:00,64.0,57.0,29.90,ESE,105,3.0,3.0,78,0.00,,,0.01,Wunderground v.1.15,2013-04-29 18:49:00,
2013-04-29 14:59:00,65.9,57.0,29.90,East,86,5.0,7.0,73,0.00,,,0.01,Wunderground v.1.15,2013-04-29 18:59:00,
2013-04-29 15:09:00,66.1,56.8,29.90,East,85,6.0,8.0,72,0.00,,,0.01,Wunderground v.1.15,2013-04-29 19:09:00,
2013-04-29 15:14:00,65.6,55.5,29.90,East,80,7.0,8.0,70,0.00,,,0.01,Wunderground v.1.15,2013-04-29 19:14:00,
2013-04-29 15:24:00,65.0,56.9,29.89,East,83,6.0,8.0,75,0.00,,,0.01,Wunderground v.1.15,2013-04-29 19:24:00,
2013-04-29 15:34:00,64.4,55.9,29.89,ENE,59,6.0,7.0,74,0.00,,,0.01,Wunderground v.1.15,2013-04-29 19:34:00,
2013-04-29 15:44:00,66.0,56.7,29.88,East,92,6.0,6.0,72,0.00,,,0.01,Wunderground v.1.15,2013-04-29 19:44:00,
2013-04-29 15:49:00,65.8,57.7,29.88,East,85,7.0,9.0,75,0.00,,,0.01,Wunderground v.1.15,2013-04-29 19:49:00,
2013-04-29 16:00:00,65.6,56.7,29.88,ESE,109,6.0,6.0,73,0.00,,,0.01,Wunderground v.1.15,2013-04-29 20:00:00,
2013-04-29 16:09:00,65.2,57.1,29.88,ESE,107,6.0,6.0,75,0.00,,,0.01,Wunderground v.1.15,2013-04-29 20:09:00,
2013-04-29 16:19:00,66.3,57.4,29.88,East,96,5.0,6.0,73,0.00,,,0.01,Wunderground v.1.15,2013-04-29 20:19:00,
2013-04-29 16:24:00,67.1,57.0,29.88,East,85,4.0,6.0,70,0.00,,,0.01,Wunderground v.1.15,2013-04-29 20:24:00,
2013-04-29 16:34:00,67.7,57.2,29.88,ENE,77,4.0,8.0,69,0.00,,,0.01,Wunderground v.1.15,2013-04-29 20:34:00,
2013-04-29 16:39:00,67.5,57.8,29.87,South,180,5.0,5.0,71,0.00,,,0.01,Wunderground v.1.15,2013-04-29 20:39:00,
2013-04-29 16:49:00,67.9,58.1,29.87,East,91,4.0,7.0,71,0.00,,,0.01,Wunderground v.1.15,2013-04-29 20:49:00,
2013-04-29 17:00:00,68.9,57.9,29.87,ESE,105,4.0,4.0,68,0.00,,,0.01,Wunderground v.1.15,2013-04-29 21:00:00,
2013-04-29 17:09:00,67.5,57.0,29.87,ENE,76,4.0,4.0,69,0.00,,,0.01,Wunderground v.1.15,2013-04-29 21:09:00,
2013-04-29 17:19:00,66.7,56.6,29.87,ENE,69,7.0,11.0,70,0.00,,,0.01,Wunderground v.1.15,2013-04-29 21:19:00,
2013-04-29 17:29:00,67.0,57.3,29.87,ENE,76,6.0,7.0,71,0.00,,,0.01,Wunderground v.1.15,2013-04-29 21:29:00,
2013-04-29 17:34:00,67.4,56.9,29.87,East,97,6.0,7.0,69,0.00,,,0.01,Wunderground v.1.15,2013-04-29 21:34:00,
2013-04-29 17:44:00,68.1,57.5,29.87,SSE,150,2.0,5.0,69,0.00,,,0.01,Wunderground v.1.15,2013-04-29 21:44:00,
2013-04-29 17:54:00,67.3,56.8,29.88,SE,124,1.0,2.0,69,0.00,,,0.01,Wunderground v.1.15,2013-04-29 21:54:00,
2013-04-29 17:59:00,67.2,56.3,29.87,SW,236,1.0,6.0,68,0.00,,,0.01,Wunderground v.1.15,2013-04-29 21:59:00,
2013-04-29 18:09:00,69.4,56.7,29.87,SW,219,6.0,6.0,64,0.00,,,0.01,Wunderground v.1.15,2013-04-29 22:09:00,
2013-04-29 18:19:00,69.4,55.8,29.88,SSW,193,5.0,5.0,62,0.00,,,0.01,Wunderground v.1.15,2013-04-29 22:19:00,
2013-04-29 18:29:00,68.4,56.2,29.87,SSW,206,5.0,5.0,65,0.00,,,0.01,Wunderground v.1.15,2013-04-29 22:29:00,
2013-04-29 18:39:00,67.9,56.1,29.87,SSW,206,5.0,5.0,66,0.00,,,0.01,Wunderground v.1.15,2013-04-29 22:39:00,
2013-04-29 18:49:00,67.8,56.0,29.87,SSW,212,5.0,5.0,66,0.00,,,0.01,Wunderground v.1.15,2013-04-29 22:49:00,
2013-04-29 18:59:00,67.9,56.5,29.88,SW,222,4.0,4.0,67,0.00,,,0.01,Wunderground v.1.15,2013-04-29 22:59:00,
2013-04-29 19:09:00,67.6,56.7,29.87,SSW,194,6.0,7.0,68,0.00,,,0.01,Wunderground v.1.15,2013-04-29 23:09:00,
2013-04-29 19:14:00,67.6,57.1,29.87,SW,217,6.0,7.0,69,0.00,,,0.01,Wunderground v.1.15,2013-04-29 23:14:00,
2013-04-29 19:19:00,67.6,56.2,29.87,SSW,202,7.0,7.0,67,0.00,,,0.01,Wunderground v.1.15,2013-04-29 23:19:00,
2013-04-29 19:29:00,67.2,56.7,29.87,SSW,196,7.0,11.0,69,0.00,,,0.01,Wunderground v.1.15,2013-04-29 23:29:00,
2013-04-29 19:34:00,67.1,57.0,29.87,SSW,194,8.0,11.0,70,0.00,,,0.01,Wunderground v.1.15,2013-04-29 23:34:00,
2013-04-29 19:39:00,66.8,57.1,29.87,South,185,7.0,9.0,71,0.00,,,0.01,Wunderground v.1.15,2013-04-29 23:39:00,
2013-04-29 19:49:00,66.2,56.1,29.88,SSW,197,7.0,7.0,70,0.00,,,0.01,Wunderground v.1.15,2013-04-29 23:49:00,
2013-04-29 19:54:00,65.8,56.5,29.88,SSW,209,7.0,7.0,72,0.00,,,0.01,Wunderground v.1.15,2013-04-29 23:54:00,
2013-04-29 19:59:00,65.4,55.7,29.88,SSW,207,6.0,6.0,71,0.00,,,0.01,Wunderground v.1.15,2013-04-29 23:59:00,
2013-04-29 20:09:00,64.9,56.4,29.88,SSW,207,6.0,6.0,74,0.00,,,0.01,Wunderground v.1.15,2013-04-30 00:09:00,
2013-04-29 20:14:00,64.5,56.0,29.88,SW,221,5.0,6.0,74,0.00,,,0.01,Wunderground v.1.15,2013-04-30 00:14:00,
2013-04-29 20:24:00,63.8,56.1,29.88,SW,215,4.0,4.0,76,0.00,,,0.01,Wunderground v.1.15,2013-04-30 00:24:00,
2013-04-29 20:29:00,63.6,55.9,29.89,SSW,207,5.0,6.0,76,0.00,,,0.01,Wunderground v.1.15,2013-04-30 00:29:00,
2013-04-29 20:39:00,63.2,55.9,29.89,SW,217,5.0,5.0,77,0.00,,,0.01,Wunderground v.1.15,2013-04-30 00:39:00,
2013-04-29 20:44:00,63.0,55.7,29.89,SSW,199,4.0,6.0,77,0.00,,,0.01,Wunderground v.1.15,2013-04-30 00:44:00,
2013-04-29 20:54:00,62.5,55.2,29.89,SSW,200,4.0,5.0,77,0.00,,,0.01,Wunderground v.1.15,2013-04-30 00:54:00,
2013-04-29 20:59:00,62.5,55.2,29.89,SSW,195,4.0,4.0,77,0.00,,,0.01,Wunderground v.1.15,2013-04-30 00:59:00,
2013-04-29 21:09:00,62.2,55.3,29.89,SSW,196,4.0,4.0,78,0.00,,,0.01,Wunderground v.1.15,2013-04-30 01:09:00,
2013-04-29 21:19:00,61.9,55.0,29.90,SSW,192,4.0,4.0,78,0.00,,,0.01,Wunderground v.1.15,2013-04-30 01:19:00,
2013-04-29 21:24:00,62.0,55.1,29.89,South,178,4.0,4.0,78,0.00,,,0.01,Wunderground v.1.15,2013-04-30 01:24:00,
2013-04-29 21:34:00,61.4,54.5,29.89,South,174,4.0,5.0,78,0.00,,,0.01,Wunderground v.1.15,2013-04-30 01:34:00,
2013-04-29 21:39:00,61.3,54.7,29.89,South,172,4.0,4.0,79,0.00,,,0.01,Wunderground v.1.15,2013-04-30 01:39:00,
2013-04-29 21:49:00,61.2,54.6,29.90,South,179,4.0,4.0,79,0.00,,,0.01,Wunderground v.1.15,2013-04-30 01:49:00,
2013-04-29 21:59:00,61.1,54.5,29.90,South,176,4.0,4.0,79,0.00,,,0.01,Wunderground v.1.15,2013-04-30 01:59:00,
2013-04-29 22:09:00,60.6,54.4,29.90,South,185,3.0,3.0,80,0.00,,,0.01,Wunderground v.1.15,2013-04-30 02:09:00,
2013-04-29 22:14:00,60.4,54.2,29.91,South,186,3.0,3.0,80,0.00,,,0.01,Wunderground v.1.15,2013-04-30 02:14:00,
2013-04-29 22:24:00,59.5,54.0,29.91,South,189,2.0,2.0,82,0.00,,,0.01,Wunderground v.1.15,2013-04-30 02:24:00,
2013-04-29 22:29:00,59.3,53.8,29.91,South,190,2.0,4.0,82,0.00,,,0.01,Wunderground v.1.15,2013-04-30 02:29:00,
2013-04-29 22:39:00,59.2,53.7,29.91,South,187,3.0,4.0,82,0.00,,,0.01,Wunderground v.1.15,2013-04-30 02:39:00,
2013-04-29 22:44:00,59.3,53.8,29.91,South,190,3.0,6.0,82,0.00,,,0.01,Wunderground v.1.15,2013-04-30 02:44:00,
2013-04-29 22:54:00,59.5,54.3,29.92,SSW,196,5.0,5.0,83,0.00,,,0.01,Wunderground v.1.15,2013-04-30 02:54:00,
2013-04-29 22:59:00,59.3,54.1,29.91,South,189,4.0,5.0,83,0.00,,,0.01,Wunderground v.1.15,2013-04-30 02:59:00,
2013-04-29 23:09:00,59.7,54.5,29.92,SSW,192,4.0,5.0,83,0.00,,,0.01,Wunderground v.1.15,2013-04-30 03:09:00,
2013-04-29 23:19:00,59.5,54.3,29.92,SSW,201,4.0,4.0,83,0.00,,,0.01,Wunderground v.1.15,2013-04-30 03:19:00,
2013-04-29 23:29:00,59.2,54.4,29.92,SSW,211,4.0,4.0,84,0.00,,,0.01,Wunderground v.1.15,2013-04-30 03:29:00,
2013-04-29 23:39:00,59.2,54.4,29.92,SSW,197,4.0,5.0,84,0.00,,,0.01,Wunderground v.1.15,2013-04-30 03:39:00,
2013-04-29 23:49:00,59.3,54.5,29.92,SSW,198,5.0,5.0,84,0.00,,,0.01,Wunderground v.1.15,2013-04-30 03:49:00,
2013-04-29 23:54:00,59.3,54.5,29.92,SSW,192,5.0,5.0,84,0.00,,,0.01,Wunderground v.1.15,2013-04-30 03:54:00,
2013-04-29 23:59:00,59.5,54.7,29.92,South,179,5.0,5.0,84,0.00,,,0.00,Wunderground v.1.15,2013-04-30 03:59:00,